Total_Precipitation_Accumulation
1.92 2.39 2.99 3.65 4.47 5.60 6.27 6.42 6.25 5.62 5.12 4.71 4.47 4.21 4.00 3.71 3.20 2.83 2.63 2.54 2.41 2.44 2.77 2.54 2.62 2.46 2.51 2.62 2.70 2.93 3.01 2.78 2.94 3.29 3.14 2.80 2.53 2.49 2.43 2.37 2.48 2.53 2.63
1.83 2.45 3.14 3.92 4.62 5.16 5.50 5.61 5.31 4.61 4.15 3.92 3.90 3.63 3.45 3.14 2.93 2.69 2.74 2.35 2.23 2.34 2.30 2.56 2.43 2.38 2.62 2.60 2.69 2.92 2.87 2.56 2.73 3.25 3.53 3.32 3.29 2.74 2.07 2.27 2.41 2.48 2.75
2.01 2.80 3.56 4.31 4.61 4.64 4.41 4.11 3.98 3.66 3.61 3.59 3.43 3.22 3.18 2.94 2.77 2.57 2.55 2.22 1.97 1.98 2.12 2.20 2.19 2.38 2.35 2.58 2.73 2.80 2.97 2.95 2.69 2.69 3.21 3.27 3.29 3.01 2.41 2.07 2.17 2.49 2.86
2.16 2.86 3.37 3.60 3.73 3.65 3.35 3.19 3.17 3.15 3.15 3.08 2.98 2.70 2.60 2.59 2.44 2.36 2.41 2.32 2.03 1.95 2.02 2.09 2.27 2.37 2.25 2.61 2.34 2.51 2.89 3.06 2.78 2.74 2.66 2.73 2.96 3.06 2.89 2.48 2.14 2.31 2.47
1.77 1.95 2.15 2.31 2.40 2.41 2.54 2.64 2.82 2.99 2.92 2.88 2.91 2.87 2.58 2.53 2.50 2.50 2.63 2.54 2.29 2.06 1.88 2.12 2.43 2.52 2.37 2.42 2.52 2.85 2.80 2.79 2.77 2.75 2.68 2.78 2.85 2.67 2.73 2.71 2.50 2.31 1.98
1.20 1.31 1.40 1.52 1.70 1.72 1.96 2.18 2.33 2.48 2.67 2.73 2.61 2.56 2.53 2.62 2.67 2.64 2.50 2.31 2.20 2.11 2.01 2.17 2.47 2.50 2.56 2.56 2.53 2.64 2.70 2.82 2.90 2.80 2.58 2.65 2.77 2.78 2.90 2.62 2.53 2.55 2.18
1.02 1.29 1.33 1.42 1.56 1.48 1.63 1.89 1.93 1.95 2.10 2.14 2.15 2.23 2.41 2.48 2.32 2.23 2.19 2.07 1.85 1.90 2.03 2.14 2.40 2.42 2.45 2.39 2.62 2.64 2.63 2.78 2.76 2.68 2.63 2.53 2.45 2.60 2.77 2.77 2.55 2.51 2.36
0.90 1.11 1.01 1.10 1.23 1.23 1.36 1.53 1.62 1.68 1.75 1.88 2.03 1.99 2.11 2.10 2.00 2.11 2.00 1.89 1.65 1.58 1.73 1.90 1.97 2.06 2.11 2.09 2.63 2.54 2.61 2.75 2.59 2.38 2.76 2.64 2.32 2.49 2.61 2.90 3.16 2.94 2.75
0.72 0.83 0.78 0.72 0.88 1.05 1.19 1.29 1.37 1.50 1.56 1.73 1.83 1.80 1.86 1.95 2.01 2.02 1.94 1.76 1.79 1.66 1.73 1.77 2.00 2.15 2.23 2.31 2.61 2.55 2.54 2.75 2.56 2.49 2.65 2.56 2.46 2.46 2.40 2.82 3.25 3.47 3.22
0.69 0.72 0.73 0.65 0.73 0.89 1.18 1.25 1.26 1.42 1.48 1.62 1.67 1.51 1.67 1.80 1.97 1.94 1.86 1.81 1.82 1.80 1.92 1.98 2.12 2.26 2.26 2.32 2.54 2.47 2.59 2.74 2.60 2.60 2.63 2.55 2.47 2.60 2.53 2.66 2.98 3.27 3.47
0.77 0.71 0.69 0.67 0.63 0.74 0.99 1.08 1.23 1.36 1.42 1.54 1.68 1.73 1.73 1.66 1.81 1.86 1.86 1.88 1.88 1.86 1.94 2.04 2.21 2.27 2.37 2.49 2.62 2.41 2.54 2.68 2.84 2.72 2.74 2.78 2.88 2.86 2.77 2.87 2.94 3.14 3.45
0.61 0.70 0.78 0.80 0.69 0.69 0.81 0.99 1.18 1.34 1.41 1.54 1.71 1.81 1.98 1.92 1.86 1.86 1.92 1.98 2.08 2.16 2.12 2.18 2.25 2.16 2.25 2.50 2.56 2.50 2.57 2.63 2.65 2.83 3.11 3.02 3.09 3.04 2.87 3.01 2.95 3.06 3.44
0.71 0.81 0.93 0.86 0.88 0.86 0.88 1.00 1.19 1.43 1.59 1.71 1.83 1.98 2.09 2.00 1.90 2.03 2.12 2.13 2.28 2.45 2.49 2.49 2.35 2.29 2.31 2.40 2.50 2.61 2.63 2.64 2.69 2.83 2.90 2.96 3.21 3.09 3.00 2.92 2.88 3.01 3.23
0.87 0.86 0.89 0.88 0.98 1.15 1.20 1.29 1.55 1.61 1.64 1.86 2.07 2.17 2.24 2.15 2.09 2.20 2.30 2.32 2.39 2.55 2.68 2.64 2.58 2.52 2.40 2.26 2.23 2.33 2.43 2.57 2.71 2.75 2.68 2.77 3.02 3.12 3.13 2.91 2.93 3.11 3.24
0.81 0.75 0.77 0.89 1.01 1.17 1.29 1.42 1.48 1.67 1.80 2.07 2.21 2.24 2.35 2.36 2.36 2.47 2.49 2.43 2.48 2.51 2.68 2.73 2.77 2.73 2.51 2.21 2.28 2.45 2.44 2.62 2.60 2.51 2.41 2.42 2.67 2.92 3.02 2.74 2.81 3.03 3.04
0.85 0.91 0.94 1.01 1.13 1.18 1.28 1.39 1.49 1.72 1.99 2.24 2.50 2.55 2.60 2.58 2.64 2.77 2.82 2.75 2.76 2.89 2.91 2.79 2.72 2.64 2.23 2.41 2.48 2.49 2.51 2.64 2.63 2.53 2.42 2.31 2.27 2.30 2.49 2.61 2.75 2.92 2.91
1.00 1.07 1.20 1.19 1.19 1.25 1.37 1.54 1.68 1.90 2.10 2.29 2.52 2.70 2.79 2.84 2.92 2.99 3.00 2.94 3.05 3.24 3.22 3.05 2.85 2.68 2.62 2.61 2.40 2.36 2.23 2.27 2.34 2.45 2.43 2.12 1.91 2.04 1.97 2.22 2.39 2.47 2.57
1.03 1.13 1.30 1.34 1.32 1.37 1.49 1.74 1.94 2.22 2.45 2.56 2.64 2.75 2.85 2.92 2.98 3.05 2.93 2.96 3.12 3.18 3.19 3.07 2.91 2.76 2.67 2.60 2.31 2.29 2.07 2.05 2.09 2.17 2.22 2.16 1.99 1.99 2.13 2.13 2.04 1.97 2.04
1.17 1.27 1.40 1.47 1.55 1.61 1.71 1.84 2.00 2.26 2.53 2.73 2.72 2.69 2.82 2.94 2.98 3.00 2.99 3.05 3.10 2.99 2.85 2.74 2.71 2.68 2.72 2.75 2.42 2.25 2.00 2.03 1.99 1.99 2.02 2.05 1.95 2.15 2.13 2.05 1.99 1.98 1.98
1.25 1.36 1.45 1.48 1.57 1.66 1.70 1.81 2.02 2.28 2.52 2.72 2.79 2.77 2.88 2.95 2.96 3.04 3.10 3.04 2.99 2.89 2.79 2.62 2.59 2.58 2.55 2.64 2.30 2.15 1.95 1.96 1.95 1.99 2.00 2.04 1.97 2.03 1.93 1.83 1.92 1.89 1.91
1.42 1.45 1.51 1.50 1.49 1.61 1.72 1.86 1.99 2.15 2.37 2.60 2.80 2.99 3.11 3.11 3.09 3.13 3.03 2.95 2.87 2.89 2.84 2.69 2.57 2.52 2.45 2.50 2.24 2.07 1.81 1.93 2.14 2.13 2.04 2.05 2.07 1.81 1.76 1.70 1.72 1.77 1.85
1.45 1.46 1.49 1.58 1.65 1.77 1.85 1.95 1.92 2.04 2.27 2.38 2.57 2.72 2.87 2.97 2.96 3.01 2.96 3.00 2.93 2.81 2.69 2.56 2.41 2.33 2.33 2.24 2.15 1.98 1.80 1.88 2.02 2.11 2.15 2.19 2.10 1.76 1.63 1.51 1.49 1.59 1.59
1.69 1.64 1.54 1.61 1.75 1.87 1.95 2.03 2.01 1.98 2.05 2.18 2.36 2.58 2.74 2.98 3.09 3.12 3.06 2.96 2.85 2.65 2.45 2.32 2.18 2.19 2.25 2.24 2.08 1.87 1.78 1.84 1.86 1.95 2.11 2.00 1.89 1.69 1.46 1.41 1.42 1.45 1.39
1.49 1.63 1.60 1.65 1.97 1.96 1.93 1.98 2.03 2.03 2.08 2.18 2.27 2.42 2.55 2.71 2.95 3.03 2.95 2.78 2.52 2.36 2.29 2.22 2.19 2.24 2.29 2.18 2.01 1.79 1.66 1.74 1.80 1.84 1.92 1.91 1.87 1.77 1.62 1.52 1.42 1.34 1.40
1.38 1.38 1.46 1.53 1.64 1.73 1.78 1.80 1.88 1.97 1.99 2.02 2.04 2.07 2.26 2.44 2.61 2.64 2.54 2.38 2.25 2.30 2.33 2.27 2.23 2.15 2.07 2.14 2.08 1.84 1.73 1.73 1.81 1.81 1.81 1.84 1.94 1.96 1.91 1.82 1.71 1.66 1.68
1.33 1.37 1.34 1.37 1.46 1.53 1.64 1.74 1.89 2.03 2.07 2.03 2.00 1.93 1.89 1.99 2.26 2.54 2.58 2.41 2.17 2.18 2.12 2.04 1.99 1.95 1.87 1.90 1.88 1.78 1.73 1.80 1.88 1.77 1.81 1.96 2.03 2.05 2.05 2.03 1.88 1.77 1.68